Regional Weather Roundup
Issued by NWS San Diego, CA

Home | Current Version | Previous Version | Text Only | Print | Product List | Glossary On
Versions: 1 2 3 4 5 6 7 8 9 10 11 12 13 14 15 16 17 18 19 20 21 22 23 24 25 26 27 28 29 30 31 32 33 34 35 36 37 38 39 40 41 42 43 44 45 46 47 48 49 50
000
ASUS46 KSGX 131511
RWRSGX

SAN DIEGO HOURLY WEATHER ROUNDUP
NATIONAL WEATHER SERVICE SAN DIEGO CA
700 AM PST SAT FEB 13 2016

NOTE: "FAIR" INDICATES FEW OR NO CLOUDS BELOW 12,000 FEET WITH NO
SIGNIFICANT WEATHER AND/OR OBSTRUCTIONS TO VISIBILITY.

CAZ042-043-060-061-PZZ750-775-131600-

GREATER SAN DIEGO AREA

CITY           SKY/WX    TMP DP  RH WIND       PRES   REMARKS
LINDBERGH FLD  CLOUDY    54  50  86 NW3       30.12R FOG
POINT LOMA       N/A     52  50  92 W8          N/A
NATIONAL CITY    N/A    N/A N/A N/A CALM      30.11R
CHULA VISTA      N/A     46  41  84 CALM      30.03R
IMPERIAL BEACH CLOUDY    56  53  90 CALM      30.12R FOG
BROWN FIELD    CLEAR     50  42  74 CALM      30.10R
MIRAMAR MCAS   PTCLDY    50  40  68 N5        30.10R
MONTGOMERY FLD CLEAR     49  44  83 CALM      30.11R

$$

NORTH SAN DIEGO COUNTY

CITY           SKY/WX    TMP DP  RH WIND       PRES   REMARKS
CAMP PENDLETON CLEAR     36  35  96 CALM      30.11R
OCEANSIDE AP   CLOUDY   N/A N/A N/A NE3       30.10R
OCEANSIDE HBR    N/A     53  52  95 N2        30.13R
VISTA            N/A     47  39  73 CALM      30.09R
CARLSBAD       CLEAR     48  46  93 CALM      30.10R FOG
DEL MAR          N/A     53  51  94 CALM      30.13R
FALLBROOK        N/A     55  35  46 CALM      30.10R
ESCONDIDO        N/A     47  37  66 CALM      30.11R
SAN MARCOS       N/A     51  38  62 CALM      30.08R
POWAY            N/A     42  37  81 CALM      30.12R

$$

EAST SAN DIEGO COUNTY

CITY           SKY/WX    TMP DP  RH WIND       PRES   REMARKS
RAMONA         CLEAR     39  34  82 CALM      30.11R
SANTEE LAKES     N/A     44  39  82 CALM      30.10R
LA MESA          N/A     54  35  48 CALM      30.02R
JAMUL            N/A     49  34  55 CALM      30.09R
DESCANSO N       N/A      0   0 100 CALM      29.97R
MT. LAGUNA OBS   N/A     55  10  16 S1        29.79S
CAMPO            N/A     38  25  59 NE8       30.12R WCI  32

$$

ORANGE COUNTY AND THE LOS ANGELES BASIN

CITY           SKY/WX    TMP DP  RH WIND       PRES   REMARKS
JOHN WAYNE AP  FOG       50  50 100 CALM      30.11R VSB 1/16
LAGUNA BEACH     N/A     42  39  88 NW3       30.07R
LAKE FOREST FR   N/A     55  27  33 CALM      29.99R
HUNTINGTON BCH   N/A     54  53  95 CALM      30.13R
LOS ALAMITOS   FOG       51  49  91 CALM      30.11R VSB<1/4
FULLERTON      CLEAR     50  45  83 CALM      30.10R HAZE
LONG BEACH     FOG       50  50 100 CALM      30.11R VSB 1/4
L.A. AP        PTCLDY    50  48  93 SE3       30.11R FOG
L.A. DOWNTOWN  CLEAR     52  49  89 CALM      30.10R

$$

THE INLAND EMPIRE

CITY           SKY/WX    TMP DP  RH WIND       PRES   REMARKS
CORONA         CLEAR     38  35  89 CALM      30.13R FOG
CHINO          PTCLDY    45  40  82 CALM      30.13R
ONTARIO        PTCLDY    51  35  54 NE3       30.11R
SAN BERNARDINO CLEAR    N/A N/A N/A CALM      30.12
RIVERSIDE AP   CLEAR     50  33  52 CALM      30.12R
MORENO VALLEY    N/A     57  33  40 CALM      28.25R
MARCH ARB      FAIR      37  32  80 CALM      30.12R
HORSETHIEF CYN   N/A     53  30  42 W3        30.13R
PERRIS           N/A     46  35  64 CALM      30.17R
HEMET EAST       N/A     57  20  24 CALM      30.00R
FRENCH VALLEY  FAIR      45  32  61 N3        30.13R
TEMECULA         N/A     45  39  79 CALM      30.11R

$$

SAN BERNARDINO AND RIVERSIDE COUNTY MOUNTAINS

CITY           SKY/WX    TMP DP  RH WIND       PRES   REMARKS
BIG BEAR AP    CLEAR     21  14  73 CALM      30.34R
PINE COVE        N/A     52   7  16 N3        30.07R

$$

SOUTHERN DESERT INCLUDING THE COACHELLA VALLEY

CITY           SKY/WX    TMP DP  RH WIND       PRES   REMARKS
PALM SPRINGS   CLEAR     59  25  27 NW10      30.08R
THOUSAND PALMS   N/A     55  25  31 W2        30.04R
PALM DESERT      N/A     52  33  48 CALM        N/A
THERMAL        CLEAR     41  30  65 NW5       30.04R
BLYTHE         CLEAR     48  24  39 W3        30.08S
IMPERIAL AP    CLEAR     50  26  39 W6        30.04R
EL CENTRO NAS  PTCLDY    47  19  33 W6        30.06R
YUMA AZ        CLEAR     53  30  41 NE3       30.04R
MEXICALI       CLEAR     50  25  37 N3        30.05

$$

UPPER DESERT

CITY           SKY/WX    TMP DP  RH WIND       PRES   REMARKS
VICTORVILLE AP CLEAR     39  23  52 CALM      30.20R
HESPERIA         N/A     42  25  50 CALM      30.30R
APPLE VALLEY     N/A     33  23  68 CALM      30.23R
PALMDALE       CLEAR     36  27  69 S8        30.20R WCI  30
LANCASTER      CLEAR     33  24  69 CALM      30.20R
EDWARDS AFB    MOCLDY    35  25  65 CALM      30.18R
DAGGETT        CLEAR     47  23  38 W14       30.18R
29 PALMS N     CLEAR     47  20  34 NW8       30.22R
NEEDLES        CLEAR     50  26  39 CALM      30.12R

$$

REGIONAL REPORTS

CITY           SKY/WX    TMP DP  RH WIND       PRES   REMARKS
SANTA BARBARA  FOG       49  48  97 CALM      30.11R VSB 1/4
SANDBERG       PTCLDY    58  17  20 N15       30.25R
LAS VEGAS NV   PTCLDY    48  24  39 S5        30.14R
PHOENIX AZ     PTCLDY    57  32  38 E3        30.08R
TIJUANA        FOG       48  45  87 W8        30.12R VSB 1/16
ENSENADA NW      N/A     54  32  42 N3        30.08R

$$

OFFSHORE ISLANDS

CITY           SKY/WX    TMP DP  RH WIND       PRES   REMARKS
CATALINA ARPT  CLEAR     68  26  20 CALM      30.13R
SAN NICOLAS IS PTCLDY   N/A N/A N/A NW5       30.09R

$$

MARINE AND OFFSHORE BUOY REPORTS

STATION/POSITION SKY/WX   TEMP    WIND        PRES    SWELL
                          AIR SEA DIR/SP/G            HT/PER/DIR
                          (F)     (DEG/KT/KT) (MB)    (FT/S/D)
TANNER BANKS               58 60  310/ 12/ 16 1019.3R  11/320/17
S CLEMENTE BASIN           55 61  290/  6/ 10 1019.1R  10/280/17
SAN NICOLAS IS.               58                N/A    10/290/17
SO. S. ROSA ISLA           58 59              1018.5R
W. S. BARBARA CH           60 58   10/  6/  8 1019.0R  13/300/17
M. S. BARBARA CH           55 59   10/  6/  8 1019.5R
S. MONICA BASIN            54 60  120/  4/  6 1019.7R   5/280/17
S PEDRO CHANNEL               60                N/A     7/270/18
DANA POINT                    61                N/A     3/260/17
OCEANSIDE OFFSHR              61                N/A     3/230/17
TORREY PINES OTR              61                N/A     5/270/18
LA JOLLA 1                 54 60  310/  4/  5 1019.1R
SAN DIEGO BAY                 61              1019.6R
POINT LOMA SOUTH              61                N/A     5/270/18

$$




USA.gov is the U.S. government's official web portal to all federal, state and local government web resources and services.